Flag for Uzbekistan Weather past 2 weeks in Tashkent, Uzbekistan

Now
57 °F

Clear.


Feels Like: 55 °F
Forecast: 40 / 61 °F
Wind: 9 mph from Northwest

Location: Tashkent

Current Time: Mar 3, 2015 at 6:15:39 PM

Latest Report: Mar 3, 2015 at 5:30 PM


Visibility: 4 mi

Pressure: 30.01 "Hg

Humidity: 44%

Dew point: 36 °F

Location of TashkentLocation

Historic Weather in Tashkent — Graph

°F

Tashkent temperature yesterday

Maximum temperature yesterday: 52 °F (at 2:30 PM)
Minimum temperature yesterday: 36 °F (at 7:00 AM)
Average temperature yesterday: 45 °F

Past Weeks' High & Low Weather Summary

 TemperatureHumidityPressure
High59 °F (Mar 3, 1:00 PM)100% (Feb 17, 8:00 AM)30.42 "Hg (Feb 17, 8:00 AM)
Low32 °F (Feb 25, 5:30 AM)27% (Feb 20, 3:30 PM)29.86 "Hg (Feb 23, 11:00 AM)
Average44 °F74%30.11 "Hg
* Reported Feb 16 5:00 PM — Mar 3 5:00 PM, Tashkent, Weather by CustomWeather, © 2015

Note: Actual official high and low records may vary slightly from our data, if they occured in-between our weather recording intervals... More about our weather records

Advertising

Tashkent weather history for previous 24 hours

 ConditionsComfort  
Time TempWeatherWind HumidityBarometerVisibility
5:00 PM
Tue, Mar 3
57 °FClear.9 mph44%29.98 "Hg4 mi
4:30 PM59 °FClear.9 mph42%29.98 "Hg4 mi
4:00 PM59 °FClear.7 mph39%29.98 "Hg4 mi
3:30 PM59 °FClear.7 mph36%29.98 "Hg4 mi
3:00 PM59 °FClear.5 mph39%29.98 "Hg4 mi
2:30 PM59 °FClear.5 mph39%29.98 "Hg4 mi
2:00 PM59 °FClear.5 mph39%29.98 "Hg4 mi
1:30 PM59 °FClear.3 mph42%30.01 "Hg4 mi
1:00 PM59 °FClear.2 mph39%30.01 "Hg4 mi
12:30 PM57 °FClear.3 mph41%30.01 "Hg4 mi
12:00 PM57 °FClear.3 mph44%30.04 "Hg4 mi
11:30 AM55 °FClear.5 mph44%30.04 "Hg4 mi
11:00 AM55 °FClear.3 mph41%30.04 "Hg4 mi
10:30 AM52 °FClear.5 mph47%30.04 "Hg4 mi
10:00 AM50 °FClear.7 mph47%30.07 "Hg4 mi
9:30 AM50 °FClear.6 mph47%30.07 "Hg4 mi
9:00 AM46 °FClear.6 mph53%30.07 "Hg4 mi
8:30 AM45 °FClear.5 mph57%30.07 "Hg4 mi
7:30 AM39 °FClear.5 mph70%30.04 "Hg4 mi
7:00 AM41 °FClear.5 mph66%30.04 "Hg3 mi
6:30 AM41 °FClear.6 mph66%30.04 "Hg2 mi
6:00 AM39 °FFog.5 mph70%30.01 "Hg2 mi
5:30 AM37 °FFog.7 mph75%30.01 "Hg2 mi
5:00 AM39 °FFog.8 mph70%30.01 "Hg2 mi
4:30 AM37 °FFog.8 mph81%30.01 "Hg2 mi
4:00 AM39 °FFog.8 mph75%30.01 "Hg2 mi
3:30 AM39 °FFog.6 mph81%30.01 "Hg2 mi
3:00 AM39 °FFog.7 mph81%30.01 "Hg2 mi
2:30 AM39 °FFog.6 mph87%30.01 "Hg2 mi
2:00 AM39 °FFog.6 mph87%30.01 "Hg2 mi
1:30 AM39 °FFog.6 mph81%30.01 "Hg2 mi
1:00 AM41 °FFog.6 mph87%30.01 "Hg1 mi
12:30 AM41 °FFog.6 mph81%30.01 "Hg1 mi
12:00 AM41 °FFog.7 mph81%30.01 "Hg2 mi
11:30 PM
Mon, Mar 2
41 °FFog.3 mph81%30.01 "Hg2 mi
11:00 PM41 °FFog.3 mph76%30.01 "Hg2 mi
10:30 PM41 °FFog.3 mph76%30.01 "Hg2 mi
10:00 PM45 °FClear.2 mph71%29.98 "Hg2 mi
9:30 PM45 °FClear.1 mph71%29.98 "Hg2 mi
9:00 PM46 °FClear.3 mph66%29.98 "Hg2 mi
8:30 PM46 °FClear.2 mph62%29.98 "Hg2 mi
8:00 PM48 °FClear.2 mph58%29.98 "Hg2 mi
7:30 PM48 °FClear.3 mph58%29.98 "Hg2 mi
7:00 PM50 °FClear.5 mph50%29.98 "Hg2 mi
6:30 PM50 °FClear.3 mph54%29.95 "Hg2 mi
6:00 PM52 °FClear.5 mph50%29.95 "Hg2 mi
Weather by CustomWeather, © 2015

See weather overviewHow to use our weather pages